Temperature
18 18 18 18 18 19 19 19 19 19 19 19 19 19 19 19 19 19 19 19 19 19 19 19 19 19 19 19 19 19 19 19 19 18 18 18 18 18 18 18 18 18 18
18 18 18 18 18 18 18 18 19 19 19 19 19 19 19 19 19 19 18 18 18 18 19 19 19 19 19 19 19 19 19 19 18 18 18 18 18 18 18 18 18 18 18
18 18 18 18 18 18 18 18 18 18 18 19 19 18 18 18 18 18 18 18 18 18 18 18 18 18 19 19 19 19 19 18 18 18 18 18 18 18 18 18 18 18 18
18 18 18 18 18 18 18 18 18 18 18 18 18 18 18 18 18 18 18 18 18 18 18 18 18 18 18 19 19 18 18 18 18 18 18 18 18 18 18 18 18 18 18
18 18 18 18 18 18 18 18 18 18 18 18 18 18 18 18 18 18 18 18 18 18 18 18 18 18 18 18 18 18 18 18 18 18 18 18 18 18 18 18 18 18 18
18 18 18 18 18 18 18 18 18 18 18 18 18 18 18 18 18 18 18 18 18 18 18 18 18 18 18 18 18 18 18 18 18 18 18 18 18 18 18 18 18 18 18
18 18 18 18 18 18 18 18 18 18 17 17 17 17 17 17 17 17 17 17 17 17 18 18 18 18 18 18 18 18 18 18 18 18 18 18 18 18 18 18 18 18 18
18 18 18 18 18 18 18 17 17 17 17 17 17 17 17 17 17 17 17 17 17 17 17 17 17 17 18 18 18 18 18 18 18 18 18 18 18 18 18 18 18 18 18
18 18 18 18 17 17 17 17 17 17 17 16 16 16 16 16 16 16 16 16 16 16 17 17 17 17 17 17 17 18 18 18 18 18 18 18 18 18 18 18 18 18 18
18 18 18 18 18 17 17 17 17 17 16 16 16 16 16 16 16 16 16 16 16 16 16 16 17 17 17 17 17 17 17 18 18 18 18 18 18 18 18 18 18 18 18
18 18 18 18 17 17 17 17 17 16 16 16 16 16 15 15 15 15 15 15 15 15 16 16 16 16 17 17 17 17 17 17 17 18 18 17 18 18 18 18 18 18 18
18 18 18 18 17 17 17 17 16 16 16 16 16 15 15 15 15 15 15 15 15 15 15 15 16 16 16 16 17 17 17 17 17 17 17 17 17 18 18 18 18 18 18
18 18 18 17 17 17 17 17 16 16 16 16 15 15 15 15 15 15 15 15 15 15 15 15 15 16 16 16 16 16 17 17 17 17 17 17 17 17 18 18 18 18 18
19 18 18 18 17 17 17 16 16 16 16 15 15 15 15 15 15 15 15 15 15 15 15 15 15 15 15 16 16 16 16 17 17 17 17 17 17 17 17 18 18 18 18
19 18 18 18 17 17 17 16 16 16 16 15 15 15 15 15 15 14 14 14 14 15 15 15 15 15 15 15 16 16 16 16 16 17 17 17 17 17 17 18 18 18 18
19 18 18 18 17 17 17 16 16 15 15 15 15 15 15 14 14 14 14 14 14 14 14 14 15 15 15 15 15 16 16 16 16 16 17 17 17 17 17 17 18 18 18
19 18 18 17 17 17 16 16 16 15 15 15 15 14 14 14 14 14 14 14 14 14 14 14 14 14 15 15 15 15 16 16 16 16 16 17 17 17 17 17 17 17 18
19 18 18 17 17 16 16 16 15 15 15 15 14 14 14 14 14 14 14 14 14 14 14 14 14 14 14 15 15 15 15 16 16 16 16 16 17 17 17 17 17 17 17
19 18 18 17 17 16 16 15 15 15 15 14 14 14 14 14 14 14 14 14 14 14 14 14 14 14 14 15 15 15 15 15 16 16 16 16 16 17 17 17 17 17 17
19 18 18 17 17 16 16 15 15 15 14 14 14 14 14 14 13 13 13 13 13 13 13 14 14 14 14 14 14 15 15 15 15 16 16 16 16 16 16 16 17 17 17
19 18 18 17 16 16 16 15 15 15 14 14 14 14 14 13 13 13 13 13 13 13 13 13 13 14 14 14 14 15 15 15 15 15 16 16 16 16 16 16 16 17 17
19 18 18 17 16 16 16 15 15 14 14 14 14 14 13 13 13 13 13 13 13 13 13 13 13 13 14 14 14 14 14 15 15 15 15 15 16 16 16 16 16 16 17
19 18 18 17 16 16 15 15 15 14 14 14 14 14 13 13 13 13 13 13 13 13 13 13 13 13 13 13 14 14 14 14 15 15 15 15 15 16 16 16 16 16 16
19 18 18 17 16 16 15 15 15 14 14 14 14 14 13 13 13 13 13 13 13 13 13 13 13 13 13 13 13 14 14 14 14 14 15 15 15 15 15 16 16 16 16
19 18 18 17 16 16 15 15 15 14 14 14 14 14 13 13 13 13 13 13 13 13 13 13 13 13 13 13 13 14 14 14 14 14 14 15 15 15 15 15 15 16 16
19 18 18 17 16 16 15 15 15 14 14 14 14 14 14 13 13 13 13 13 13 13 13 13 13 13 13 13 13 13 14 14 14 14 14 14 14 15 15 15 15 15 16
Wind_Speed
4 6 11 11 10 9 9 9 8 8 8 7 7 6 6 6 6 6 6 6 6 5 5 5 5 4 5 5 5 5 5 5 5 4 4 4 3 4 4 5 5 5 6
8 9 12 11 10 9 8 8 7 7 7 6 5 5 5 5 5 5 4 4 4 4 3 3 3 3 3 3 3 3 4 4 4 3 3 2 2 3 4 5 5 5 6
10 10 11 11 10 9 8 7 7 7 6 5 5 4 4 4 4 3 3 3 2 2 2 1 1 1 1 1 2 2 3 3 4 3 2 1 2 3 4 5 6 6 6
11 11 11 11 10 9 8 8 7 6 6 5 5 4 4 4 3 2 2 2 1 1 1 1 0 0 1 0 1 2 2 3 4 4 1 1 1 4 5 6 6 6 6
10 11 12 12 10 9 8 8 7 6 5 5 4 4 3 2 2 1 1 1 1 1 1 1 1 2 2 2 2 2 3 3 4 3 1 1 2 5 6 6 6 6 6
9 10 12 12 10 9 8 7 6 5 4 4 3 2 2 1 0 1 1 2 2 2 2 2 2 3 3 3 3 3 3 4 4 2 1 2 4 6 7 7 6 6 6
9 8 11 11 10 9 8 7 6 4 3 2 1 1 0 1 1 2 2 3 2 3 3 3 4 4 4 5 5 4 4 4 3 2 2 3 5 7 7 7 6 6 6
10 8 10 11 11 9 8 7 6 5 3 2 1 2 2 3 3 4 4 3 3 4 4 4 4 5 5 5 5 5 5 4 3 2 2 4 6 7 8 7 7 6 6
9 7 7 8 9 9 9 8 6 5 4 3 3 3 4 5 5 5 5 5 5 5 5 5 6 6 6 6 6 7 7 5 3 2 3 4 6 8 8 8 7 7 7
7 7 6 7 7 7 7 8 7 5 5 4 4 5 5 6 7 7 7 7 6 6 6 6 6 7 7 7 8 8 7 5 3 3 3 6 8 9 9 9 8 8 7
6 5 5 5 5 6 6 7 6 5 4 4 4 5 5 5 6 6 6 7 6 6 6 7 7 7 7 7 8 8 7 4 3 3 5 7 9 10 9 9 9 9 8
7 6 5 5 4 4 5 4 3 3 3 3 3 4 3 3 3 2 4 5 5 5 6 6 6 6 5 4 6 6 4 4 3 4 5 8 10 10 10 9 9 10 9
7 6 5 5 4 4 2 2 1 1 1 1 2 2 2 2 2 3 3 4 4 4 4 5 5 4 3 3 3 3 4 4 3 4 5 8 10 10 10 10 10 10 10
7 6 5 4 4 3 2 1 1 1 1 0 1 1 2 1 2 2 1 2 2 2 2 3 2 3 3 3 3 3 3 3 4 4 5 8 9 9 10 10 10 11 11
7 6 4 4 4 4 3 1 2 1 1 1 1 2 2 1 1 2 1 1 2 2 1 2 2 2 2 2 2 2 3 3 3 3 4 8 9 9 10 10 10 11 12
7 6 5 5 5 5 3 2 2 1 1 2 2 2 2 1 0 1 1 2 2 2 1 1 1 2 2 2 3 3 3 3 3 3 4 6 8 9 10 10 11 11 12
8 6 6 6 6 6 4 3 2 2 2 2 2 4 5 3 1 1 1 1 2 2 1 1 2 2 2 2 3 3 2 3 3 3 4 4 5 8 9 10 11 12 13
8 7 6 6 6 5 4 3 2 2 3 2 3 4 5 5 3 1 1 1 2 1 1 1 1 2 2 2 2 3 2 2 2 3 4 4 4 6 7 9 11 12 13
10 9 7 7 6 5 4 3 2 2 2 2 2 2 3 4 4 1 1 1 1 1 1 1 1 1 2 2 3 2 2 2 2 2 3 3 4 5 6 8 10 11 12
9 9 8 7 5 4 3 3 3 3 2 1 1 1 2 2 3 2 1 2 1 1 1 1 1 1 1 2 2 2 2 2 1 1 2 2 2 4 4 5 6 8 11
9 8 8 7 4 3 2 2 1 1 1 1 1 1 1 1 2 1 1 2 1 0 1 1 0 1 1 1 2 3 3 3 2 1 0 1 1 1 3 4 5 5 7
9 8 7 7 5 4 3 2 2 1 1 1 2 2 2 1 2 1 1 1 1 0 1 1 1 1 1 1 2 2 2 4 3 2 1 1 0 0 1 2 4 5 6
9 9 9 7 6 5 3 2 2 3 3 2 2 2 3 2 2 2 2 1 1 0 1 1 1 2 0 1 1 3 2 1 2 3 2 2 1 1 0 1 2 4 6
9 9 9 8 6 5 4 4 3 2 1 2 2 2 4 3 3 2 2 1 1 1 1 2 1 1 2 0 1 1 2 2 1 1 2 2 2 1 0 1 1 2 4
9 9 8 8 6 5 4 5 4 2 2 2 1 2 3 4 4 3 2 2 1 1 1 1 1 1 2 2 1 0 1 1 1 2 0 2 2 1 1 1 0 2 3
8 8 8 8 6 5 5 5 4 3 2 1 1 2 2 3 3 4 3 2 1 1 2 2 1 2 2 2 1 1 2 2 1 2 1 0 1 1 1 1 0 1 2
Wind_Direction
153 158 143 135 128 122 117 110 106 103 102 99 100 101 97 93 92 92 94 94 93 89 83 79 81 77 67 63 56 51 48 49 52 57 65 68 70 73 76 81 85 75 77
153 151 140 133 128 124 117 111 107 104 100 98 97 99 99 94 91 94 97 97 94 93 91 86 86 84 74 69 54 44 37 33 38 42 53 65 74 83 86 92 95 88 78
142 140 137 134 130 125 120 115 109 104 100 96 95 93 95 93 89 87 94 99 96 93 91 89 96 97 92 77 41 20 14 10 13 18 35 84 108 106 108 103 97 87 82
140 140 139 136 131 126 122 116 109 102 98 94 90 86 86 87 84 78 72 71 70 80 100 129 170 227 210 210 324 322 336 347 2 9 24 142 139 124 122 113 101 93 89
137 140 141 138 134 130 124 118 114 107 99 94 88 82 78 80 77 69 52 8 333 320 295 268 259 263 255 247 258 283 305 325 344 4 20 148 147 142 134 125 112 102 95
141 142 144 141 140 136 131 126 122 116 107 98 92 86 82 70 1 292 283 291 296 286 289 287 273 262 262 255 253 264 288 309 326 338 287 177 165 155 144 135 124 114 107
146 147 148 147 148 145 141 138 134 130 124 112 100 89 209 246 272 273 266 266 267 272 279 282 281 273 266 259 252 254 270 295 313 308 234 195 179 161 150 144 137 130 121
151 155 157 157 157 158 157 156 156 158 163 179 230 271 279 279 279 278 271 272 267 270 277 279 276 273 269 263 256 254 261 272 295 300 233 206 192 170 160 152 145 140 136
154 155 163 168 170 172 174 174 177 181 190 212 242 267 279 286 285 278 269 265 266 268 275 278 273 272 271 268 262 258 258 259 262 275 244 214 195 175 167 162 156 152 146
153 158 166 174 181 187 188 193 197 201 210 228 249 268 284 292 290 281 273 265 267 271 276 279 278 277 273 270 263 260 260 261 253 262 240 221 198 181 174 168 164 162 156
160 170 176 181 189 195 201 210 214 220 227 247 266 278 298 309 303 282 275 269 269 274 279 282 286 283 278 275 270 262 260 252 247 248 226 219 198 186 178 174 172 169 164
169 175 174 173 186 193 203 210 231 241 248 256 268 286 302 307 311 316 303 303 292 288 290 292 292 291 286 281 282 274 257 244 242 242 229 217 201 191 182 180 179 176 171
168 161 160 157 163 169 191 161 184 221 248 300 298 281 322 356 360 357 349 331 317 306 306 304 304 301 286 272 271 263 251 239 235 238 235 218 202 193 187 183 185 182 179
151 151 154 140 132 140 118 109 147 153 82 18 308 312 45 26 359 344 336 323 318 308 312 307 298 299 294 277 264 252 246 238 232 227 230 225 210 202 195 189 189 187 185
151 149 140 122 117 117 106 101 88 89 119 115 56 28 56 74 350 333 323 338 321 321 327 308 306 305 299 293 281 259 244 242 239 216 226 227 217 212 206 198 196 194 190
158 151 133 117 115 109 100 93 87 78 97 73 50 32 51 75 63 11 0 348 329 327 322 317 313 310 302 302 300 279 251 241 234 222 219 224 223 221 216 208 201 195 192
158 146 132 123 109 104 99 88 82 80 79 61 48 40 38 43 57 48 23 336 312 326 352 10 353 350 331 319 303 292 261 245 229 222 213 219 230 230 225 216 204 199 197
149 142 135 123 114 109 100 91 84 76 75 66 57 44 39 45 54 52 25 309 310 352 0 358 3 347 326 316 299 293 282 253 233 219 212 215 228 234 231 223 208 201 199
150 143 131 123 121 115 105 89 77 68 71 76 68 54 35 33 36 47 345 303 334 3 357 327 16 356 315 314 296 290 301 288 256 233 210 210 221 225 223 222 211 204 198
144 138 133 129 125 115 91 69 53 48 36 36 44 39 35 23 23 38 343 329 350 15 355 345 325 328 289 296 315 344 336 326 312 226 218 221 222 222 218 212 205 205 198
138 138 139 138 143 124 100 94 81 35 338 341 320 338 360 3 15 25 352 342 350 354 291 303 342 347 327 347 38 7 354 358 3 338 166 189 203 231 210 201 191 186 195
152 150 147 149 155 148 145 163 178 184 250 270 307 327 318 332 343 342 354 327 331 344 342 359 60 57 350 48 97 74 9 355 352 359 28 88 35 40 177 192 177 179 180
157 159 157 160 159 154 141 109 66 48 23 1 335 320 302 295 305 309 302 297 306 188 241 254 174 134 80 350 94 127 127 241 317 341 4 29 41 55 93 210 175 175 176
167 160 154 160 158 155 142 126 125 132 193 248 257 278 298 300 301 292 287 279 272 238 238 249 185 162 135 74 345 72 145 160 156 350 349 3 26 52 20 237 192 172 171
166 159 156 155 158 159 148 146 142 154 217 259 286 310 313 308 304 301 291 289 276 251 241 241 195 167 159 162 162 135 78 73 112 151 325 346 358 346 344 306 189 161 166
161 155 154 153 162 164 155 154 157 171 194 232 299 309 309 305 309 315 311 306 281 251 237 217 200 177 174 165 163 155 153 145 178 159 172 252 326 319 334 7 126 185 168
Height
1514 1515 1516 1517 1517 1518 1518 1518 1518 1519 1519 1519 1519 1519 1520 1520 1520 1520 1520 1520 1520 1520 1520 1520 1520 1520 1519 1519 1519 1519 1518 1518 1518 1517 1517 1517 1517 1516 1516 1516 1515 1515 1514
1514 1515 1516 1517 1517 1518 1518 1518 1518 1518 1519 1519 1519 1519 1519 1519 1519 1520 1520 1520 1520 1520 1520 1520 1519 1519 1519 1519 1519 1518 1518 1518 1518 1517 1517 1517 1516 1516 1516 1516 1515 1515 1514
1514 1515 1516 1517 1518 1518 1518 1518 1518 1518 1518 1518 1518 1518 1518 1518 1519 1519 1519 1519 1519 1519 1519 1519 1519 1519 1518 1518 1518 1518 1518 1518 1517 1517 1517 1517 1516 1516 1516 1516 1516 1515 1515
1514 1515 1516 1517 1518 1518 1518 1518 1518 1518 1518 1518 1517 1517 1517 1517 1518 1518 1518 1518 1518 1518 1518 1518 1518 1518 1518 1518 1518 1518 1518 1517 1517 1517 1517 1517 1516 1516 1516 1516 1516 1516 1515
1515 1516 1517 1517 1517 1518 1518 1518 1517 1517 1517 1517 1517 1516 1516 1516 1517 1517 1516 1517 1517 1517 1517 1517 1517 1517 1517 1517 1517 1517 1517 1517 1517 1517 1517 1516 1516 1516 1516 1516 1516 1516 1516
1515 1516 1517 1517 1517 1517 1517 1517 1517 1516 1516 1516 1516 1515 1515 1515 1515 1515 1515 1515 1515 1515 1515 1515 1515 1515 1516 1516 1516 1516 1516 1516 1516 1516 1516 1516 1516 1516 1516 1517 1517 1517 1516
1515 1516 1517 1517 1517 1517 1517 1516 1516 1516 1515 1515 1514 1514 1514 1514 1513 1513 1513 1513 1513 1513 1513 1513 1514 1514 1514 1514 1515 1515 1515 1516 1516 1516 1516 1516 1516 1516 1516 1517 1517 1517 1517
1515 1516 1516 1517 1517 1516 1516 1516 1516 1515 1514 1514 1513 1513 1512 1512 1512 1512 1511 1511 1511 1511 1511 1511 1511 1512 1512 1513 1513 1514 1514 1514 1515 1515 1515 1516 1516 1516 1516 1517 1517 1518 1518
1515 1516 1516 1516 1516 1516 1516 1515 1515 1514 1514 1513 1512 1512 1511 1511 1510 1510 1510 1509 1509 1509 1509 1509 1509 1510 1510 1511 1511 1512 1513 1513 1513 1514 1515 1515 1515 1516 1516 1517 1517 1518 1518
1515 1516 1516 1516 1516 1516 1515 1515 1514 1514 1513 1513 1512 1511 1510 1510 1509 1508 1508 1508 1507 1507 1507 1507 1507 1507 1508 1509 1509 1510 1511 1512 1512 1513 1513 1514 1515 1515 1516 1516 1517 1518 1518
1515 1516 1516 1516 1516 1515 1515 1514 1514 1513 1513 1512 1511 1510 1509 1509 1508 1507 1506 1506 1506 1505 1505 1505 1505 1505 1506 1506 1507 1508 1509 1510 1511 1511 1512 1513 1514 1515 1515 1516 1517 1517 1518
1514 1515 1515 1515 1515 1514 1514 1514 1513 1512 1512 1511 1510 1509 1508 1507 1507 1506 1505 1505 1504 1504 1503 1503 1503 1503 1504 1504 1505 1506 1507 1508 1509 1510 1511 1512 1513 1514 1514 1515 1516 1517 1518
1513 1514 1514 1514 1514 1514 1513 1513 1512 1511 1511 1510 1509 1508 1507 1506 1505 1504 1504 1503 1502 1502 1502 1501 1501 1501 1501 1502 1503 1504 1505 1506 1507 1508 1509 1511 1512 1513 1514 1514 1515 1517 1517
1513 1513 1514 1513 1513 1513 1512 1512 1511 1510 1509 1508 1507 1506 1506 1505 1504 1503 1502 1501 1501 1500 1500 1499 1499 1499 1500 1500 1501 1502 1503 1504 1505 1506 1508 1509 1510 1511 1512 1514 1515 1516 1517
1512 1513 1513 1512 1512 1512 1511 1511 1510 1509 1508 1507 1506 1505 1504 1503 1503 1502 1500 1500 1499 1498 1498 1497 1497 1497 1497 1498 1499 1500 1501 1502 1503 1505 1506 1507 1509 1510 1511 1513 1514 1515 1516
1511 1512 1512 1512 1511 1511 1511 1510 1509 1508 1507 1506 1505 1504 1503 1502 1501 1500 1499 1498 1497 1497 1496 1496 1495 1495 1495 1496 1497 1498 1499 1500 1501 1503 1504 1505 1507 1508 1510 1511 1512 1514 1515
1510 1511 1511 1511 1510 1510 1510 1509 1508 1508 1506 1505 1504 1503 1502 1501 1499 1498 1497 1497 1496 1495 1494 1494 1494 1493 1493 1494 1494 1495 1497 1498 1499 1501 1502 1504 1505 1507 1508 1510 1511 1512 1514
1509 1510 1510 1510 1510 1509 1509 1508 1508 1507 1506 1504 1503 1502 1501 1499 1498 1497 1496 1495 1494 1493 1493 1492 1492 1492 1492 1492 1492 1493 1494 1496 1497 1498 1500 1502 1503 1505 1506 1508 1509 1511 1512
1508 1509 1509 1509 1509 1509 1508 1508 1507 1506 1505 1503 1502 1501 1499 1498 1497 1496 1494 1493 1493 1492 1491 1491 1491 1490 1490 1491 1491 1491 1492 1493 1495 1496 1498 1500 1502 1503 1505 1506 1508 1510 1511
1507 1508 1508 1508 1508 1508 1507 1507 1506 1505 1504 1503 1501 1500 1498 1497 1496 1494 1493 1492 1491 1490 1490 1490 1489 1489 1489 1489 1489 1490 1491 1492 1493 1494 1496 1498 1499 1501 1503 1505 1507 1508 1510
1506 1506 1507 1507 1507 1507 1506 1506 1505 1504 1503 1502 1501 1499 1497 1496 1494 1493 1492 1491 1490 1489 1489 1488 1488 1488 1488 1488 1489 1489 1490 1491 1492 1493 1495 1496 1498 1500 1501 1503 1505 1507 1508
1504 1505 1505 1506 1506 1506 1505 1505 1504 1503 1502 1501 1500 1498 1497 1495 1494 1492 1491 1490 1489 1488 1488 1487 1487 1487 1487 1488 1488 1489 1489 1491 1491 1492 1493 1495 1496 1498 1500 1502 1503 1505 1507
1503 1503 1504 1504 1505 1505 1504 1504 1503 1503 1502 1501 1499 1498 1496 1495 1493 1491 1490 1489 1488 1487 1487 1486 1486 1487 1487 1487 1488 1489 1489 1490 1490 1492 1492 1494 1495 1496 1498 1500 1502 1504 1506
1501 1502 1503 1503 1503 1503 1503 1503 1502 1502 1501 1500 1499 1497 1496 1494 1493 1491 1489 1488 1487 1486 1486 1486 1486 1486 1486 1487 1488 1488 1489 1489 1490 1491 1492 1493 1494 1495 1496 1498 1500 1502 1504
1500 1501 1501 1502 1502 1502 1502 1502 1502 1501 1500 1499 1498 1497 1496 1494 1492 1491 1489 1487 1486 1485 1485 1485 1485 1485 1486 1486 1487 1487 1488 1489 1489 1490 1491 1492 1493 1494 1495 1497 1499 1500 1502
1498 1499 1500 1500 1501 1501 1501 1501 1501 1500 1499 1499 1498 1496 1495 1494 1492 1490 1489 1487 1486 1485 1484 1484 1484 1484 1485 1485 1486 1487 1487 1488 1488 1489 1490 1491 1492 1493 1494 1496 1497 1499 1501